Simultaneous Nadir Overpasses (SNOs) Predictions

Prediction of SNOs between NPP and PACE Satellite Orbit:

Table of predicted SNOs for the next 14.0 days since TLE Epoch: 7/20/2024
Index Date (NPP) Time (NPP) Lat,Lon (NPP) SZA (NPP ) Date (PACE) Time (PACE) Lat,Lon (PACE) SZA (PACE ) Distance(km) Time Diff (sec)
1 07/20/2024 05:20:11 -79.91,-117.90 118.24 07/20/2024 05:20:11 -79.91,-117.83 118.25 1.49 0
2 07/22/2024 08:55:59 80.04, 6.92 62.43 07/22/2024 08:57:01 80.03, 6.97 62.39 1.07 62
3 07/22/2024 09:46:36 -79.82, 176.40 117.99 07/22/2024 09:46:04 -79.82, 176.32 117.96 1.65 32
4 07/24/2024 13:22:24 79.95, -58.81 62.71 07/24/2024 13:22:53 79.94, -58.81 62.69 0.49 29
5 07/24/2024 14:13:01 -79.72, 110.64 117.70 07/24/2024 14:11:56 -79.73, 110.52 117.65 2.44 65
6 07/26/2024 17:48:51 79.93,-125.19 63.15 07/26/2024 17:48:46 79.92,-125.10 63.13 1.88 5
7 07/28/2024 21:24:35 -79.98, 0.35 116.26 07/28/2024 21:25:31 -79.99, 0.21 116.27 2.98 56
8 07/28/2024 22:15:15 79.81, 169.25 63.44 07/28/2024 22:14:36 79.82, 169.22 63.47 0.70 39
9 07/31/2024 01:51:03 -79.99, -66.39 115.71 07/31/2024 01:51:23 -79.98, -66.23 115.75 3.20 20
10 07/31/2024 02:41:12 78.81, 110.42 62.30 07/31/2024 02:39:59 78.70, 109.77 62.31 18.79 73



Historial Predications of SNOs between NPP and PACE
